カタログに戻る

FENGYUN 1C DEB

LostPO
NORAD 38504·DEBRIS·🇨🇳 China

打ち上げ May 10, 1999 から Taiyuan Satellite Launch Center

Loading…

次のパス (今後24時間)

TLE

古いSource: Space-Track

元期: May 3, 2024, 17:03 UTC

1 38504U 99025ESP 24124.71049816  .00010778  00000-0  50218-2 0  9995
2 38504  98.0106  88.5334 0188661 347.3296  12.3171 14.11669281765654

AllMySatでFENGYUN 1C DEBをリアルタイム追跡

Download on the App Store